425  
SXUS52 KCHS 151327  
OSOCHS  
 
MARINE OBSERVATIONS  
NATIONAL WEATHER SERVICE CHARLESTON SC  
900 AM EDT WED AUG 15 2018  
   
..DOWNTOWN CHARLESTON AND HARBOR
 
 
 
CITY SKY/WX TMP DP RH WIND PRES REMARKS  
WATERFRONT PRK N/A 79 76 91 VRB3 29.91R  
   
..LAKE MOULTRIE
 
 
 
CITY SKY/WX TMP DP RH WIND PRES REMARKS  
PINOPOLIS N/A 75 73 94 W8 30.00R  
   
..LAKE AND SUPPLEMENTAL COASTAL OBSERVATIONS
 
 
 
STATION/POSITION TIME TEMP WIND PRES WAVE SWELL  
AIR SEA DIR/SP/G HT/PER HT/PER/DIR  
(UTC) (F) (DEG/KT/KT) (MB) (FT/S) (FT/S/D)  
FORT PULASKI 1254 79 84 240/ 4/ 8 1019.1R  
SAPELO ISLAND 1300 79 220/ 6 1019.0  
WINYAH BAY 1245 78 260/ 4 1019.0R  
LAKE MURRAY 1220 76 280/ 3/ 4 1017.3  
ACE BASIN NERRS 1245 80 250/ 1 1019.0R  
 
   
..C-MAN AND BUOY OBSERVATIONS
 
 
 
STATION/POSITION TIME TEMP WIND PRES WAVE SWELL  
AIR SEA DIR/SP/G HT/PER HT/PER/DIR  
(UTC) (F) (DEG/KT/KT) (MB) (FT/S) (FT/S/D)  
BUOY 41004 1300 82 84 240/ 10/ 12 1018.8  
BUOY 41008 1250 80 82 220/ 10/ 10 1019.0R 2/ 4 2/120/ 6  
FOLLY BEACH CMAN 1300 80 230/ 4/ 7 1019.2R  
PRITCHARDS ISLAN NOT AVBL  
CAPERS NS BUOY 1308 80 81 270/ 4/ 6 1018.1R  
FRIPP NS BUOY 1308 81 84 250/ 6/ 10 1018.4R  
5E ST. MARYS GA 1300 80 N/A 2/ 7  
 
 
STATION/POSITION TIME TEMP WIND PRES WAVE SWELL  
AIR SEA DIR/SP/G HT/PER HT/PER/DIR  
(UTC) (F) (DEG/KT/KT) (MB) (FT/S) (FT/S/D)  
FRYING PAN BUOY 1300 80 83 210/ 14/ 17 1018.6  
BUOY 41025 1300 81 84 270/ 6/ 8 1018.4  
CAPE LOOKOUT NC 1300 250/ 8/ 11 1018.4R  
BUOY 41002 1300 83 200/ 12/ 14 1020.5  
BUOY 41010 1300 84 84 160/ 8/ 10 1020.4  
ST AUGUSTINE FL 1300 79 78 220/ 3/ 4 1019.8R  
 

 
 
 
CLICK HERE TO GO TO PREVIOUS BULLETINS.

The Nexlab SC Page
The Nexlab GA Page Main Text Page